Date,TemperatureHighF,TemperatureAvgF,TemperatureLowF,DewpointHighF,DewpointAvgF,DewpointLowF,HumidityHigh,HumidityAvg,HumidityLow,PressureMaxIn,PressureMinIn,WindSpeedMaxMPH,WindSpeedAvgMPH,GustSpeedMaxMPH,PrecipitationSumIn
2013-10-1,65,63,62,60,59,59,92,88,83,0.00,40.00,3,2,0,0.00
2013-10-2,75,64,52,60,49,38,98,66,26,0.00,40.00,3,1,0,0.00
2013-10-3,76,61,50,64,54,42,95,78,68,0.00,40.00,7,2,0,0.00
2013-10-4,76,68,62,65,63,61,97,86,67,0.00,40.00,4,2,0,0.35
2013-10-5,74,67,61,67,64,61,98,91,74,0.00,40.00,2,1,0,1.19
2013-10-6,68,59,49,66,56,48,97,93,87,0.00,40.00,4,2,0,0.12
2013-10-7,58,50,44,50,45,42,95,83,56,0.00,40.00,10,5,0,0.05
2013-10-8,69,52,43,46,43,41,94,76,43,0.00,40.00,4,2,0,0.00
2013-10-9,70,61,50,49,45,42,86,57,38,0.00,40.00,2,1,0,0.00
2013-10-10,72,53,40,50,44,40,98,75,36,0.00,40.00,2,0,0,0.00
2013-10-11,71,53,40,50,44,39,97,74,39,0.00,40.00,2,0,0,0.00
2013-10-12,77,60,48,60,48,-100,96,69,37,0.00,40.00,6,2,0,0.09
2013-10-13,61,52,43,60,46,40,98,81,52,0.00,40.00,6,2,0,0.01
2013-10-14,61,46,38,43,38,34,98,77,37,0.00,40.00,2,0,0,0.00
2013-10-15,63,50,39,58,47,38,97,90,75,0.00,40.00,4,1,0,0.24
2013-10-16,59,50,47,58,48,45,97,93,87,0.00,40.00,6,4,0,0.14
2013-10-17,49,47,40,48,46,40,98,97,93,0.00,40.00,8,2,0,0.50
2013-10-18,57,45,39,46,41,38,98,87,63,0.00,40.00,7,3,0,0.01
2013-10-19,50,43,38,41,36,-100,96,80,50,0.00,40.00,7,3,0,0.18
2013-10-20,55,45,36,42,39,36,98,80,51,0.00,40.00,8,3,0,0.07
2013-10-21,54,46,39,47,40,28,96,79,64,0.00,40.00,10,5,0,0.22
2013-10-22,47,39,31,32,28,24,80,67,55,0.00,40.00,7,4,0,0.00
2013-10-23,43,35,29,32,29,25,96,81,53,0.00,40.00,6,2,0,0.00
2013-10-24,42,35,30,32,30,28,96,83,60,0.00,40.00,7,3,0,0.01
2013-10-25,43,36,29,35,30,25,98,78,51,0.00,40.00,9,4,0,0.00
2013-10-26,50,42,37,37,29,-100,82,62,50,0.00,40.00,11,8,0,0.05
2013-10-27,51,40,33,32,30,27,83,67,45,0.00,40.00,8,3,0,0.00
2013-10-28,45,38,33,35,30,-100,91,77,66,0.00,40.00,3,1,0,0.00
2013-10-29,45,39,36,34,30,27,86,72,65,0.00,40.00,2,1,0,0.00
2013-10-30,61,46,31,52,40,30,98,82,54,0.00,40.00,3,1,0,0.14
2013-10-31,59,58,54,59,57,53,98,97,95,0.00,40.00,8,5,0,0.93